Location: Beneden-Haastrecht
(52.0012°N, 4.7557°E)
Time: 05:36:53
(UTC+00:00)

USA 306 - Pass Details

Date: 24 October 2020
Orbit: 569 x 577 km, 54.0° (Epoch: 22 November)

Event Time Altitude Azimuth Distance (km) Brightness Sun altitude
Rises 19:23:48 0° 290° (WNW) 2,786 7.7 -27.6°
Reaches altitude 10° 19:26:05 10° 287° (WNW) 1,884 6.5 -27.9°
Enters shadow 19:29:00 40° 267° (W) 859 4.1 -28.4°
